Погода в Красных Баррикадах

Россия / Астраханская область     46°12′16″N   47°51′30″E
темп.,
°C
ветер,
м/с
пор.,
м/с
влажн.,
%
обл.,
%
осадки,
мм/ч
давл.,
гПа
погр.,
м
13 июня, вс
вс1301:00+24зюз22526 0.0 101235
04:00+23с115365 0.0 101111
07:00+25св0147100 0.0 1011107
10:00+28ююв3338100 0.0 1011888
13:00+30ю133274 0.0 10102517
16:00+31ю5529100 0.0 10091770
19:00+27з4545100 0.0 1010259
22:00+25сз7854100 0.0 1011465
14 июня, пн
пн1401:00+23ссз2466100 0.1 1011145
04:00+22с3470100 0.4 1011206
07:00+22ссз1170100 0.4 1011136
10:00+22ссз4570100 1.2 1011310
13:00+26ссв665236 0.0 10111076
16:00+29с884498 0.0 10101377
19:00+28ссв98450 0.0 10091026
22:00+25с812560 0.0 1009428
15 июня, вт
вт1501:00+23ссз713615 0.1 1008389
04:00+22ссз711634 0.1 1006242
07:00+24сз565166 0.0 1006231
10:00+28сз563798 0.0 1006763
13:00+31зсз552976 0.0 10061197
16:00+33зсз562769 0.0 10061608
19:00+32зсз543085 0.0 10061028
22:00+28зсз47410 0.0 1008175
16 июня, ср
ср1601:00+26сз36490 0.0 1008104
04:00+25с34550 0.0 100961
07:00+26св34500 0.0 1010182
10:00+30всв33380 0.0 10101038
13:00+34всв23300 0.0 10091884
16:00+35ююв34260 0.0 10082415
19:00+33ююв66290 0.0 1008801
22:00+28ю35420 0.0 1010129
17 июня, чт
чт1701:00+26вюв11470 0.0 100921
04:00+25в33450 0.0 100932
07:00+27в474321 0.0 1009199
10:00+34в68284 0.0 10091231
13:00+37вюв89185 0.0 10072024
16:00+37вюв99190 0.0 10071595
19:00+33юв89265 0.0 1007621
22:00+28вюв61043100 0.0 1008204